Weather in Kordyaga

Russia / Kirov Oblast     58°25′42″N   51°01′42″E
temp.,
°C
wind,
m/s
gust,
m/s
humid.,
%
clouds,
%
prec.,
mm/h
press.,
hPa
HPBL,
m
15 may, sat
sat1500:00+16sw3677100 0.0 1016103
03:00+15w248992 0.0 101786
06:00+19wsw237695 0.0 1018221
09:00+21s4667100 0.0 1018461
12:00+24s3651100 0.3 10171175
15:00+27ssw5846100 0.3 10151626
18:00+24ssw5124985 0.0 1013911
21:00+19ssw41367100 0.0 1015345
16 may, sun
sun1600:00+17ssw312714 0.0 1015259
03:00+15ssw39785 0.0 1015157
06:00+18ssw3106668 0.0 1015301
09:00+24ssw594894 0.0 1015755
12:00+26sw6104223 0.0 10141496
15:00+27ssw61245100 0.0 10142463
18:00+24sw4959100 0.0 1013480
21:00+17sw37857 1.8 1014119
17 may, mon
mon1700:00+16sw2388100 0.6 101546
03:00+14wsw25862 0.8 101684
06:00+17wsw37758 0.0 1017271
09:00+22wsw575315 0.0 10171246
12:00+24wsw5842100 0.0 10171857
15:00+25wsw573840 0.0 10162083
18:00+23wnw255198 0.0 1016217
21:00+17w226632 0.0 101715
18 may, tue
tue1800:00+15wnw117587 0.0 101711
03:00+15s117896 0.0 101811
06:00+19sse11665 0.1 1018131
09:00+24s114886 0.1 1018731
12:00+27sw234180 0.0 10171506
15:00+27sw3439100 0.0 10162183
18:00+25s125111 0.0 101625
21:00+21e1155100 0.0 101716
19 may, wed
wed1900:00+18ese396514 0.0 1017215
03:00+17ese4106468 0.0 1017241
06:00+18ese486521 0.0 1018257
09:00+24se465178 0.0 1017605
12:00+28sse5638100 0.0 10161695
15:00+28sse463221 0.0 10152389
18:00+25ese394567 0.0 1014287
21:00+20se5126598 0.0 1013322